Location: Bieg
(49.3499°N, 10.3835°E)
Time: 12:10:56
(UTC+00:00)

H-2A R/B - Pass Details

Date: 23 May 2024
Orbit: 567 x 637 km, 98.4° (Epoch: 20 June)

Event Time Altitude Azimuth Distance (km) Brightness Sun altitude
Rises 00:30:55 0° 4° (N) 2,954 7.0 -18.0°
Reaches altitude 10° 00:33:29 10° 350° (N) 2,040 5.6 -17.9°
Maximum altitude 00:36:57 23° 299° (WNW) 1,371 3.9 -17.7°
Enters shadow 00:39:16 15° 258° (WSW) 1,700 4.0 -17.6°
